Location: Newark
(27.9675°N, 86.8869°E)
Time: 17:15:08
(UTC+00:00)

Courier 1B Rocket - Pass Details

Date: 19 October 2019
Orbit: 920 x 1202 km, 28.2° (Epoch: 17 November)

Event Time Altitude Azimuth Distance (km) Brightness Sun altitude
Rises 00:42:40 0° 275° (W) 3,563 7.3 5.2°
Reaches altitude 10° 00:45:14 10° 275° (W) 2,636 6.7 5.7°
Maximum altitude 00:51:35 88° 188° (S) 970 5.2 7.1°
Drops below altitude 10° 00:58:21 10° 98° (E) 2,794 10.1 8.5°
Sets 01:01:08 0° 98° (E) 3,789 10.3 9.1°
